EW4415 Weather Reports


Display with metric or nautical units.
time (UTC)temp
F
wind
direction
speed
MPH
gust
MPH
rain 1hr
in
rain 24hr
in
rain mn
in
humidity
%
barometer
mb
20260504160106 51 273 0.0 0.0 0.00 0.12 0.12 1 1000.9
20260504081518 55 194 0.0 0.0 0.00 0.00 0.00 58 1003.7
20260504050014 48 181 0.0 0.0 0.00 0.00 0.00 1 1004.8
20260504044512 47 181 0.0 0.0 0.00 0.00 0.00 1 1004.9
20260504043010 46 181 0.0 0.0 0.00 0.00 0.00 1 1005.2
20260504041601 44 181 0.0 0.0 0.00 0.00 0.00 1 1005.3
20260504040057 44 181 0.0 0.0 0.00 0.00 0.00 1 1005.3
20260504034553 44 181 0.0 0.0 0.00 0.00 0.00 1 1005.4
20260504033047 44 181 0.0 0.0 0.00 0.00 0.00 1 1005.4
20260504031550 44 181 0.0 0.0 0.00 0.00 0.00 1 1005.4
20260504030055 44 181 0.0 0.0 0.00 0.00 0.00 1 1005.6
20260504024538 45 181 0.0 0.0 0.00 0.00 0.00 1 1005.6
20260504023030 45 181 0.0 0.0 0.00 0.00 0.00 1 1005.7
20260504021525 46 181 0.0 0.0 0.00 0.00 0.00 1 1005.7
20260504020033 46 181 0.0 0.0 0.00 0.00 0.00 1 1005.9
20260504014516 47 181 0.0 0.0 0.00 0.00 0.00 1 1005.9
20260504013019 47 181 0.0 0.0 0.00 0.00 0.00 1 1006.1
20260504011507 47 181 0.0 0.0 0.00 0.00 0.00 1 1006.2
20260504010002 48 181 0.0 0.0 0.00 0.00 0.00 1 1006.2
20260504004558 48 181 0.0 0.0 0.00 0.00 0.00 1 1006.4
20260504003054 48 181 0.0 0.0 0.00 0.00 0.00 1 1006.4
20260504001557 48 181 0.0 0.0 0.00 0.00 0.00 1 1006.3
20260504000046 48 181 0.0 0.0 0.00 0.00 0.00 1 1006.6
20260503234542 48 181 0.0 0.0 0.00 0.00 0.00 1 1006.6
20260503233036 48 181 0.0 0.0 0.00 0.00 0.00 1 1006.6
20260503231532 49 181 0.0 0.0 0.00 0.00 0.00 1 1006.6
20260503230038 49 181 0.0 0.0 0.00 0.00 0.00 1 1006.7
20260503224524 49 181 0.0 0.0 0.00 0.00 0.00 1 1006.8
20260503223020 49 181 0.0 0.0 0.00 0.00 0.00 1 1006.8
20260503221516 49 181 0.0 0.0 0.00 0.00 0.00 1 1006.9
20260503220020 49 181 0.0 0.0 0.00 0.00 0.00 1 1006.9
20260503214514 49 181 0.0 0.0 0.00 0.00 0.00 1 1007.0
20260503213002 49 181 0.0 0.0 0.00 0.00 0.00 1 1007.0
20260503211558 49 181 0.0 0.0 0.00 0.00 0.00 1 1007.1
20260503210053 49 181 0.0 0.0 0.00 0.00 0.00 1 1007.1
20260503204548 49 181 0.0 0.0 0.00 0.00 0.00 1 1007.2
20260503203047 49 181 0.0 0.0 0.00 0.00 0.00 1 1007.2
20260503201544 49 181 0.0 0.0 0.00 0.00 0.00 1 1007.3
20260503200035 49 181 0.0 0.0 0.00 0.00 0.00 1 1007.4
20260503194537 50 181 0.0 0.0 0.00 0.00 0.00 1 1007.4
20260503193027 50 181 0.0 0.0 0.00 0.00 0.00 1 1007.3
20260503191522 50 181 0.0 0.0 0.00 0.00 0.00 8 1007.4
20260503190017 50 181 0.0 0.0 0.00 0.00 0.00 12 1007.5
20260503184513 50 181 0.0 0.0 0.00 0.00 0.00 15 1007.5
20260503183009 50 181 0.0 0.0 0.00 0.00 0.00 14 1007.4
20260503181515 51 181 0.0 0.0 0.00 0.00 0.00 19 1007.2
20260503180100 51 181 0.0 0.0 0.00 0.00 0.00 29 1007.3
20260503174611 52 181 0.0 0.0 0.00 0.00 0.00 31 1007.3
20260503173055 52 181 0.0 0.0 0.00 0.00 0.00 34 1007.3
20260503171550 52 181 0.0 0.0 0.00 0.00 0.00 35 1007.3